EW9766 Weather Reports


time (UTC)temp
F
wind
direction
speed
knots
gust
knots
rain 1hr
in
rain 24hr
in
rain mn
in
humidity
%
barometer
mb
20260510081530 52 151 5.2 8.7 0.00 2.56 0.00 64 1018.4
20260510080033 52 154 5.2 8.7 0.00 2.56 0.00 64 1018.5
20260510074532 52 152 4.3 10.4 0.00 2.56 0.00 64 1018.5
20260510073030 52 164 4.3 7.8 2.56 2.56 0.00 64 1018.5
20260510071607 53 161 4.3 7.0 2.56 2.56 0.00 64 1018.5
20260510070034 53 147 5.2 7.8 2.56 2.56 0.00 64 1018.4
20260510064533 66 139 568.3 0.0 2.56 2.56 0.00 66 1013.9
20260510061530 54 143 4.3 7.0 0.00 0.00 0.00 64 1018.4
20260510060037 55 148 5.2 7.0 0.00 0.00 0.00 64 1018.3
20260510054534 53 149 5.2 7.8 0.00 0.00 0.00 65 1018.3
20260510053037 54 152 4.3 7.0 0.00 0.00 0.00 64 1018.3
20260510051535 54 181 4.3 7.0 0.00 0.00 0.00 64 1018.2
20260510050107 54 167 3.5 7.0 0.00 0.00 0.00 65 1018.1
20260510044535 54 162 3.5 6.1 0.00 0.00 0.00 65 1017.9
20260510043033 55 162 3.5 5.2 0.00 0.00 0.00 65 1018.0
20260510041533 55 155 3.5 4.3 0.00 0.00 0.00 64 1017.9
20260510040106 57 156 3.5 5.2 0.00 0.00 0.00 62 1017.8
20260510033030 61 169 2.6 4.3 0.00 0.00 0.00 60 1017.6
20260510031531 62 154 2.6 3.5 0.00 0.00 0.00 59 1017.6
20260510030106 64 180 0.0 2.6 0.00 0.00 0.00 57 1017.6
20260510024535 65 197 0.9 1.7 0.00 0.00 0.00 53 1017.7
20260510023031 66 225 0.0 1.7 0.00 0.00 0.00 50 1017.8
20260510021532 67 260 0.0 1.7 0.00 0.00 0.00 47 1017.6
20260510020034 69 270 0.0 0.9 0.00 0.00 0.00 42 1017.7
20260510014535 71 270 0.9 2.6 0.00 0.00 0.00 40 1017.9
20260510013034 71 275 1.7 4.3 0.00 0.00 0.00 41 1018.2
20260510010033 72 274 1.7 6.1 0.00 0.00 0.00 40 1018.2
20260510004530 73 293 2.6 7.0 0.00 0.00 0.00 40 1018.2
20260510001534 72 316 2.6 6.1 0.00 0.00 0.00 42 1018.3
20260509234643 74 300 3.5 8.7 0.00 0.00 0.00 41 1018.5
20260509233031 74 307 2.6 8.7 0.00 0.00 0.00 42 1018.6
20260509231531 73 300 2.6 7.0 0.00 0.00 0.00 42 1018.9
20260509230030 73 328 3.5 8.7 0.00 0.00 0.00 42 1019.0
20260509224531 73 338 2.6 6.1 0.00 0.00 0.00 42 1019.3
20260509223034 73 299 3.5 7.0 0.00 0.00 0.00 43 1019.6
20260509221607 73 297 3.5 9.6 0.00 0.00 0.00 45 1019.8
20260509220037 73 314 3.5 8.7 0.00 0.00 0.00 46 1019.9
20260509214528 73 310 3.5 7.8 0.00 0.00 0.00 47 1020.0
20260509213029 71 302 3.5 11.3 0.00 0.00 0.00 49 1020.2
20260509211532 71 325 3.5 7.8 0.00 0.00 0.00 49 1020.3
20260509210032 71 319 2.6 7.0 0.00 0.00 0.00 49 1020.5
20260509203030 70 299 3.5 8.7 0.00 0.00 0.00 51 1020.7
20260509201530 70 327 3.5 8.7 0.00 0.00 0.00 51 1020.9
20260509200031 69 318 3.5 7.8 0.00 0.00 0.00 51 1021.1
20260509194533 69 321 3.5 7.0 0.00 0.00 0.00 50 1021.2
20260509193031 69 298 2.6 9.6 0.00 0.00 0.00 50 1021.3
20260509191534 67 330 2.6 7.0 0.00 0.00 0.00 50 1021.4
20260509190107 67 326 3.5 8.7 0.00 0.00 0.00 51 1021.6
20260509184610 66 304 2.6 6.1 0.00 0.00 0.00 52 1021.8
20260509183029 65 348 3.5 7.8 0.00 0.00 0.00 51 1021.9
20260509181652 64 334 3.5 7.0 0.00 0.00 0.00 50 1022.0
20260509174530 64 299 2.6 7.0 0.00 0.00 0.00 51 1021.9
20260509171531 62 345 3.5 7.0 0.00 0.00 0.00 50 1022.1
20260509170106 61 316 3.5 7.0 0.00 0.00 0.00 49 1022.2
20260509164607 60 341 3.5 6.1 0.00 0.00 0.00 49 1022.2
20260509163031 61 339 3.5 6.1 0.00 0.00 0.00 49 1022.2
20260509161533 60 336 2.6 4.3 0.00 0.00 0.00 50 1022.2
20260509160035 58 350 0.9 3.5 0.00 0.00 0.00 52 1022.3
20260509154529 57 40 2.6 5.2 0.00 0.00 0.00 52 1022.5
20260509153032 58 26 3.5 5.2 0.00 0.00 0.00 52 1022.5
20260509151535 57 49 0.0 3.5 0.00 0.00 0.00 53 1022.4
20260509150035 56 101 1.7 3.5 0.00 0.00 0.00 56 1022.3
20260509144528 55 139 2.6 4.3 0.00 0.00 0.00 60 1022.4
20260509143107 53 156 3.5 6.1 0.00 0.00 0.00 62 1022.4
20260509141652 51 145 3.5 6.1 0.00 0.00 0.00 66 1022.3
20260509140035 48 154 4.3 7.0 0.00 0.00 0.00 70 1022.3
20260509134528 44 149 4.3 7.8 0.00 0.00 0.00 72 1022.3
20260509133029 43 138 5.2 7.0 0.00 0.00 0.00 72 1022.2
20260509131535 43 154 5.2 8.7 0.00 0.00 0.00 73 1022.2
20260509130107 43 151 4.3 8.7 0.00 0.00 0.00 73 1021.9
20260509124530 43 159 5.2 8.7 0.00 0.00 0.00 73 1021.8
20260509123033 44 144 5.2 7.8 0.00 0.00 0.00 73 1021.8
20260509121532 45 159 4.3 7.8 0.00 0.00 0.00 73 1021.9
20260509120106 45 163 5.2 9.6 0.00 0.00 0.00 73 1021.8
20260509114532 45 154 5.2 8.7 0.00 0.00 0.00 73 1021.7
20260509113035 46 150 5.2 10.4 0.00 0.00 0.00 74 1021.8
20260509110037 46 137 4.3 10.4 0.00 0.00 0.00 75 1021.9
20260509103036 45 149 5.2 8.7 0.00 0.00 0.00 77 1022.0
20260509101535 45 146 5.2 9.6 0.00 0.00 0.00 78 1022.1
20260509100036 44 155 5.2 9.6 0.00 0.00 0.00 78 1022.2
20260509094534 44 156 4.3 8.7 0.00 0.00 0.00 79 1022.2
20260509093149 44 152 5.2 7.8 0.00 0.00 0.00 78 1022.3
20260509090035 45 142 5.2 8.7 0.00 0.00 0.00 78 1022.5
20260509084650 45 141 2.6 7.0 0.00 0.00 0.00 78 1022.8
20260509083038 45 134 5.2 9.6 0.00 0.00 0.00 78 1022.9